DW5872 Weather Reports


time (UTC)temp
F
wind
direction
speed
knots
gust
knots
rain 1hr
in
rain 24hr
in
rain mn
in
humidity
%
barometer
mb
20260506201553 67 293 1.7 6.1 0.00 0.01 0.01 77 1006.5
20260506200056 67 259 1.7 9.6 0.00 0.01 0.01 78 1006.5
20260506194553 66 279 0.9 8.7 0.00 0.01 0.01 79 1006.8
20260506193056 67 0 0.0 8.7 0.00 0.01 0.01 78 1007.0
20260506191558 66 273 0.0 7.8 0.00 0.01 0.01 78 1007.0
20260506190052 66 0 0.0 2.6 0.00 0.01 0.01 80 1007.1
20260506184553 65 262 0.0 5.2 0.00 0.01 0.01 82 1007.1
20260506183100 66 260 0.0 7.0 0.00 0.01 0.01 81 1007.2
20260506181556 68 275 1.7 11.3 0.00 0.01 0.01 75 1007.3
20260506180058 69 328 3.5 13.0 0.00 0.01 0.01 71 1007.5
20260506174600 68 302 0.9 3.5 0.00 0.01 0.01 74 1007.4
20260506173126 68 294 0.9 6.1 0.00 0.01 0.01 77 1007.3
20260506171553 67 0 1.7 6.1 0.01 0.01 0.01 79 1007.5
20260506170053 66 0 0.0 2.6 0.01 0.01 0.01 81 1007.7
20260506164555 66 0 0.0 2.6 0.01 0.01 0.01 80 1008.6
20260506163056 66 0 0.0 6.1 0.01 0.01 0.01 77 1009.0
20260506161605 67 0 0.0 5.2 0.00 0.00 0.00 74 1009.1
20260506160054 70 260 0.0 5.2 0.00 0.00 0.00 67 1009.2
20260506154601 71 229 0.9 10.4 0.00 0.00 0.00 61 1009.1
20260506153058 71 277 1.7 8.7 0.00 0.00 0.00 62 1009.1
20260506151554 71 243 0.9 10.4 0.00 0.00 0.00 62 1009.1
20260506144609 72 280 1.7 9.6 0.00 0.00 0.00 60 1009.3
20260506143055 72 271 1.7 7.0 0.00 0.00 0.00 61 1009.2
20260506141555 71 286 0.0 8.7 0.00 0.00 0.00 64 1009.1
20260506140110 71 273 2.6 10.4 0.00 0.00 0.00 62 1009.1
20260506134554 71 268 1.7 12.2 0.00 0.00 0.00 63 1009.0
20260506133133 71 265 0.9 9.6 0.00 0.00 0.00 64 1009.2
20260506131555 70 263 1.7 7.8 0.00 0.00 0.00 65 1009.1
20260506130134 69 269 0.0 7.8 0.00 0.00 0.00 67 1009.2
20260506124553 68 0 1.7 8.7 0.00 0.00 0.00 69 1009.1
20260506123053 67 0 0.9 8.7 0.00 0.00 0.00 71 1009.2
20260506121556 67 269 0.9 7.0 0.00 0.00 0.00 71 1009.3
20260506120100 67 0 0.9 5.2 0.00 0.00 0.00 71 1009.3
20260506114553 66 277 0.0 6.1 0.00 0.00 0.00 73 1009.6
20260506113054 66 271 0.0 6.1 0.00 0.00 0.00 74 1009.6
20260506111554 65 0 0.9 5.2 0.00 0.00 0.00 76 1009.6
20260506110055 64 0 0.0 3.5 0.00 0.00 0.00 77 1009.5
20260506104600 64 0 0.0 4.3 0.00 0.00 0.00 78 1009.3
20260506103055 64 0 0.0 8.7 0.00 0.00 0.00 78 1009.4
20260506101552 63 272 0.0 5.2 0.00 0.00 0.00 79 1009.4
20260506100105 63 0 0.9 7.8 0.00 0.00 0.00 79 1009.2
20260506094605 63 0 0.0 5.2 0.00 0.00 0.00 79 1009.2
20260506093056 63 0 0.0 1.7 0.00 0.00 0.00 79 1009.1
20260506091607 63 0 0.0 0.9 0.00 0.00 0.00 79 1009.2
20260506090059 64 0 0.0 2.6 0.00 0.00 0.00 78 1009.3
20260506084602 64 270 0.0 1.7 0.00 0.00 0.00 78 1009.4
20260506083058 64 270 0.0 0.9 0.00 0.00 0.00 78 1009.4
20260506081608 64 0 0.0 0.9 0.00 0.00 0.00 78 1009.6
20260506073053 64 0 0.0 1.7 0.00 0.00 0.00 77 1009.5
20260506071553 64 0 0.0 0.9 0.00 0.00 0.00 76 1009.7
20260506061553 66 0 0.0 1.7 0.00 0.00 0.00 72 1009.8
20260506044555 67 275 0.0 2.6 0.00 0.00 0.00 68 1010.3
20260506043057 68 0 0.0 5.2 0.00 0.00 0.00 67 1010.3
20260506041555 68 0 0.0 2.6 0.00 0.00 0.00 66 1010.2
20260506040057 68 296 0.0 1.7 0.00 0.00 0.00 65 1010.3
20260506034611 69 296 0.9 6.1 0.00 0.00 0.00 64 1010.3
20260506033055 69 313 0.0 6.1 0.00 0.00 0.00 63 1010.3
20260506031556 69 0 0.0 9.6 0.00 0.00 0.00 61 1010.3
20260506030054 70 310 0.0 3.5 0.00 0.00 0.00 60 1010.3
20260506024556 70 159 0.9 12.2 0.00 0.00 0.00 58 1010.1
20260506023058 70 130 0.0 3.5 0.00 0.00 0.00 57 1010.2
20260506021554 71 284 0.0 3.5 0.00 0.00 0.00 57 1010.3
20260506020055 71 284 0.9 4.3 0.00 0.00 0.00 56 1010.1
20260506014553 71 0 0.0 1.7 0.00 0.00 0.00 56 1010.2
20260506013106 72 0 0.0 5.2 0.00 0.00 0.00 55 1010.0
20260506011558 72 0 0.9 6.1 0.00 0.00 0.00 54 1009.9
20260506010117 73 0 0.0 6.1 0.00 0.00 0.00 52 1009.8
20260506004554 75 289 0.0 4.3 0.00 0.00 0.00 48 1009.5
20260506003112 76 290 0.9 7.8 0.00 0.00 0.00 42 1009.2
20260506001603 77 286 0.9 10.4 0.00 0.00 0.00 42 1009.2
20260506000059 78 0 0.9 3.5 0.00 0.00 0.00 40 1009.2
20260505234558 79 273 0.9 12.2 0.00 0.00 0.00 37 1008.9
20260505233124 80 340 1.7 9.6 0.00 0.00 0.00 36 1008.7
20260505231611 81 261 1.7 7.8 0.00 0.00 0.00 35 1008.3
20260505230110 81 279 0.9 6.1 0.00 0.00 0.00 33 1008.2
20260505224610 82 266 0.9 12.2 0.00 0.00 0.00 30 1008.0
20260505223101 83 275 2.6 8.7 0.00 0.00 0.00 27 1008.1
20260505221612 83 267 0.0 11.3 0.00 0.00 0.00 27 1007.9
20260505220100 83 257 3.5 13.0 0.00 0.00 0.00 26 1007.8
20260505214635 84 0 1.7 8.7 0.00 0.00 0.00 32 1007.5
20260505213116 84 261 1.7 11.3 0.00 0.00 0.00 31 1007.5
20260505211558 84 0 1.7 10.4 0.00 0.00 0.00 32 1007.5
20260505210053 84 274 1.7 13.9 0.00 0.00 0.00 31 1007.4
20260505204555 85 269 2.6 10.4 0.00 0.00 0.00 31 1007.2
20260505203056 85 5 3.5 18.2 0.00 0.00 0.00 31 1007.6